| time (UTC) | temp C | wind direction | speed KPH | gust KPH | rain 1hr cm | rain 24hr cm | rain mn cm | humidity % | barometer mb |
| 20260831111023 | 15 | 9 | 1.6 | 8.0 | 0.00 | 0.00 | 0.00 | 95 | 1020.9 |
| 20260831110510 | 15 | 336 | 3.2 | 12.9 | 0.00 | 0.00 | 0.00 | 95 | 1020.7 |
| 20260831110028 | 14 | 28 | 8.0 | 12.9 | 0.00 | 0.00 | 0.00 | 95 | 1020.7 |
| 20260831105513 | 14 | 30 | 3.2 | 6.4 | 0.00 | 0.00 | 0.00 | 95 | 1020.7 |
| 20260831105014 | 14 | 319 | 3.2 | 9.7 | 0.00 | 0.00 | 0.00 | 95 | 1020.6 |
| 20260831104529 | 14 | 9 | 1.6 | 12.9 | 0.00 | 0.00 | 0.00 | 94 | 1020.5 |
| 20260831104013 | 14 | 34 | 4.8 | 14.5 | 0.00 | 0.00 | 0.00 | 94 | 1020.5 |
| 20260831103504 | 14 | 336 | 4.8 | 14.5 | 0.00 | 0.00 | 0.00 | 94 | 1020.5 |
| 20260831103014 | 13 | 38 | 8.0 | 14.5 | 0.00 | 0.00 | 0.00 | 94 | 1020.5 |
| 20260831102506 | 13 | 44 | 8.0 | 11.3 | 0.00 | 0.00 | 0.00 | 94 | 1020.5 |
| 20260831102007 | 13 | 36 | 4.8 | 8.0 | 0.00 | 0.00 | 0.00 | 94 | 1020.5 |
| 20260831101522 | 13 | 28 | 4.8 | 6.4 | 0.00 | 0.00 | 0.00 | 94 | 1020.6 |
| 20260831101012 | 13 | 76 | 1.6 | 4.8 | 0.00 | 0.00 | 0.00 | 94 | 1020.6 |
| 20260831100508 | 13 | 178 | 0.0 | 3.2 | 0.00 | 0.00 | 0.00 | 94 | 1020.5 |
| 20260831100003 | 13 | 196 | 1.6 | 3.2 | 0.00 | 0.00 | 0.00 | 94 | 1020.5 |
| 20260831095502 | 13 | 232 | 1.6 | 4.8 | 0.00 | 0.00 | 0.00 | 94 | 1020.5 |
| 20260831095002 | 14 | 265 | 0.0 | 6.4 | 0.00 | 0.00 | 0.00 | 94 | 1020.4 |
| 20260831094505 | 14 | 325 | 1.6 | 6.4 | 0.00 | 0.00 | 0.00 | 94 | 1020.4 |
| 20260831094003 | 14 | 321 | 3.2 | 6.4 | 0.00 | 0.00 | 0.00 | 94 | 1020.4 |
| 20260831093504 | 14 | 9 | 1.6 | 8.0 | 0.00 | 0.00 | 0.00 | 94 | 1020.4 |
| 20260831093016 | 14 | 46 | 3.2 | 9.7 | 0.00 | 0.00 | 0.00 | 94 | 1020.3 |
| 20260831092504 | 14 | 26 | 3.2 | 11.3 | 0.00 | 0.00 | 0.00 | 94 | 1020.2 |
| 20260831092004 | 14 | 42 | 4.8 | 11.3 | 0.00 | 0.00 | 0.00 | 94 | 1020.2 |
| 20260831091513 | 14 | 67 | 4.8 | 9.7 | 0.00 | 0.00 | 0.00 | 93 | 1020.1 |
| 20260831091007 | 14 | 46 | 1.6 | 6.4 | 0.00 | 0.00 | 0.00 | 94 | 1020.1 |
| 20260831090507 | 14 | 38 | 3.2 | 6.4 | 0.00 | 0.00 | 0.00 | 94 | 1020.1 |
| 20260831090016 | 14 | 22 | 1.6 | 4.8 | 0.00 | 0.00 | 0.00 | 94 | 1020.1 |
| 20260831085512 | 14 | 34 | 1.6 | 4.8 | 0.00 | 0.00 | 0.00 | 93 | 1020.0 |
| 20260831085012 | 14 | 238 | 0.0 | 3.2 | 0.00 | 0.00 | 0.00 | 94 | 1020.0 |
| 20260831084505 | 14 | 34 | 0.0 | 4.8 | 0.00 | 0.00 | 0.00 | 93 | 1019.9 |
| 20260831084002 | 14 | 221 | 1.6 | 4.8 | 0.00 | 0.00 | 0.00 | 94 | 1020.0 |
| 20260831083503 | 14 | 178 | 0.0 | 3.2 | 0.00 | 0.00 | 0.00 | 93 | 1019.9 |
| 20260831083004 | 14 | 265 | 1.6 | 3.2 | 0.00 | 0.00 | 0.00 | 93 | 1019.7 |
| 20260831082504 | 15 | 9 | 1.6 | 3.2 | 0.00 | 0.00 | 0.00 | 93 | 1019.7 |
| 20260831082005 | 15 | 309 | 1.6 | 3.2 | 0.00 | 0.00 | 0.00 | 93 | 1019.6 |
| 20260831081511 | 15 | 221 | 0.0 | 3.2 | 0.00 | 0.00 | 0.00 | 93 | 1019.6 |
| 20260831081007 | 15 | 9 | 0.0 | 3.2 | 0.00 | 0.00 | 0.00 | 93 | 1019.6 |
| 20260831080512 | 15 | 221 | 1.6 | 3.2 | 0.00 | 0.00 | 0.00 | 93 | 1019.6 |
| 20260831080015 | 15 | 178 | 0.0 | 4.8 | 0.00 | 0.00 | 0.00 | 93 | 1019.5 |
| 20260831075514 | 15 | 178 | 1.6 | 4.8 | 0.00 | 0.00 | 0.00 | 93 | 1019.4 |
| 20260831075013 | 15 | 254 | 1.6 | 4.8 | 0.00 | 0.00 | 0.00 | 93 | 1019.4 |
| 20260831074525 | 15 | 265 | 1.6 | 4.8 | 0.00 | 0.00 | 0.00 | 93 | 1019.4 |
| 20260831074016 | 15 | 238 | 1.6 | 4.8 | 0.00 | 0.00 | 0.00 | 93 | 1019.5 |
| 20260831073518 | 15 | 265 | 1.6 | 3.2 | 0.00 | 0.00 | 0.00 | 92 | 1019.5 |
| 20260831073033 | 15 | 238 | 0.0 | 3.2 | 0.00 | 0.00 | 0.00 | 92 | 1019.5 |
| 20260831071509 | 15 | 67 | 0.0 | 3.2 | 0.00 | 0.00 | 0.00 | 92 | 1019.4 |
| 20260831071006 | 15 | 126 | 1.6 | 4.8 | 0.00 | 0.00 | 0.00 | 92 | 1019.3 |
| 20260831070508 | 15 | 265 | 1.6 | 4.8 | 0.00 | 0.00 | 0.00 | 92 | 1019.2 |
| 20260831070015 | 15 | 309 | 0.0 | 3.2 | 0.00 | 0.00 | 0.00 | 92 | 1019.2 |
| 20260831065509 | 16 | 291 | 0.0 | 3.2 | 0.00 | 0.00 | 0.00 | 92 | 1019.2 |
| 20260831065005 | 16 | 9 | 1.6 | 4.8 | 0.00 | 0.00 | 0.00 | 92 | 1019.2 |
| 20260831064517 | 16 | 325 | 1.6 | 4.8 | 0.00 | 0.00 | 0.00 | 92 | 1019.2 |
| 20260831064010 | 16 | 9 | 1.6 | 3.2 | 0.00 | 0.00 | 0.00 | 92 | 1019.3 |
| 20260831063511 | 16 | 51 | 0.0 | 4.8 | 0.00 | 0.00 | 0.00 | 91 | 1019.3 |
| 20260831063025 | 16 | 51 | 0.0 | 4.8 | 0.00 | 0.00 | 0.00 | 91 | 1019.3 |
| 20260831062517 | 16 | 309 | 1.6 | 4.8 | 0.00 | 0.00 | 0.00 | 91 | 1019.3 |
| 20260831062014 | 16 | 146 | 1.6 | 4.8 | 0.00 | 0.00 | 0.00 | 91 | 1019.3 |
| 20260831061531 | 16 | 196 | 1.6 | 4.8 | 0.00 | 0.00 | 0.00 | 91 | 1019.3 |
| 20260831061020 | 16 | 178 | 1.6 | 4.8 | 0.00 | 0.00 | 0.00 | 91 | 1019.3 |
| 20260831060503 | 16 | 137 | 0.0 | 3.2 | 0.00 | 0.00 | 0.00 | 91 | 1019.3 |
| 20260831060012 | 16 | 67 | 1.6 | 4.8 | 0.00 | 0.00 | 0.00 | 90 | 1019.3 |
| 20260831055506 | 16 | 212 | 1.6 | 4.8 | 0.00 | 0.00 | 0.00 | 90 | 1019.3 |
| 20260831055008 | 16 | 76 | 1.6 | 4.8 | 0.00 | 0.00 | 0.00 | 89 | 1019.1 |
| 20260831054514 | 16 | 247 | 3.2 | 4.8 | 0.00 | 0.00 | 0.00 | 89 | 1019.1 |
| 20260831054007 | 16 | 238 | 1.6 | 3.2 | 0.00 | 0.00 | 0.00 | 89 | 1019.2 |
| 20260831053515 | 16 | 146 | 0.0 | 6.4 | 0.00 | 0.00 | 0.00 | 89 | 1019.1 |
| 20260831053041 | 16 | 309 | 1.6 | 6.4 | 0.00 | 0.00 | 0.00 | 88 | 1019.0 |
| 20260831052510 | 17 | 67 | 3.2 | 8.0 | 0.00 | 0.00 | 0.00 | 88 | 1019.0 |
| 20260831052011 | 17 | 26 | 3.2 | 8.0 | 0.00 | 0.00 | 0.00 | 88 | 1019.0 |
| 20260831051532 | 17 | 34 | 4.8 | 12.9 | 0.00 | 0.00 | 0.00 | 87 | 1018.9 |
| 20260831051020 | 17 | 336 | 3.2 | 12.9 | 0.00 | 0.00 | 0.00 | 87 | 1018.9 |
| 20260831050514 | 17 | 15 | 6.4 | 11.3 | 0.00 | 0.00 | 0.00 | 86 | 1018.8 |
| 20260831050032 | 17 | 39 | 4.8 | 11.3 | 0.00 | 0.00 | 0.00 | 86 | 1018.9 |
| 20260831045514 | 17 | 76 | 6.4 | 11.3 | 0.00 | 0.00 | 0.00 | 84 | 1018.9 |
| 20260831045004 | 18 | 24 | 4.8 | 11.3 | 0.00 | 0.00 | 0.00 | 85 | 1018.8 |
| 20260831044514 | 17 | 321 | 4.8 | 11.3 | 0.00 | 0.00 | 0.00 | 86 | 1018.8 |
| 20260831044007 | 17 | 19 | 4.8 | 9.7 | 0.00 | 0.00 | 0.00 | 85 | 1018.8 |
| 20260831043508 | 17 | 20 | 4.8 | 8.0 | 0.00 | 0.00 | 0.00 | 83 | 1018.7 |
| 20260831043017 | 18 | 319 | 1.6 | 8.0 | 0.00 | 0.00 | 0.00 | 82 | 1018.6 |
| 20260831042514 | 18 | 26 | 3.2 | 11.3 | 0.00 | 0.00 | 0.00 | 83 | 1018.5 |
| 20260831042010 | 18 | 340 | 3.2 | 11.3 | 0.00 | 0.00 | 0.00 | 83 | 1018.5 |
| 20260831041531 | 18 | 9 | 3.2 | 11.3 | 0.00 | 0.00 | 0.00 | 83 | 1018.5 |
| 20260831041014 | 18 | 13 | 4.8 | 8.0 | 0.00 | 0.00 | 0.00 | 83 | 1018.6 |
| 20260831040514 | 18 | 9 | 3.2 | 14.5 | 0.00 | 0.00 | 0.00 | 82 | 1018.5 |
| 20260831040035 | 18 | 9 | 4.8 | 14.5 | 0.00 | 0.00 | 0.00 | 82 | 1018.4 |
| 20260831035514 | 18 | 32 | 9.7 | 14.5 | 0.00 | 0.00 | 0.00 | 83 | 1018.3 |
| 20260831035017 | 18 | 51 | 8.0 | 16.1 | 0.00 | 0.00 | 0.00 | 82 | 1018.4 |
| 20260831034530 | 19 | 34 | 1.6 | 16.1 | 0.00 | 0.00 | 0.00 | 80 | 1018.4 |
| 20260831034015 | 19 | 67 | 8.0 | 16.1 | 0.00 | 0.00 | 0.00 | 80 | 1018.5 |
| 20260831033516 | 19 | 32 | 3.2 | 11.3 | 0.00 | 0.00 | 0.00 | 81 | 1018.4 |
| 20260831033027 | 18 | 9 | 1.6 | 8.0 | 0.00 | 0.00 | 0.00 | 81 | 1018.5 |
| 20260831032509 | 18 | 314 | 3.2 | 8.0 | 0.00 | 0.00 | 0.00 | 81 | 1018.6 |
| 20260831032016 | 18 | 341 | 3.2 | 6.4 | 0.00 | 0.00 | 0.00 | 81 | 1018.5 |
| 20260831031519 | 18 | 51 | 1.6 | 4.8 | 0.00 | 0.00 | 0.00 | 81 | 1018.4 |
| 20260831031013 | 19 | 146 | 1.6 | 4.8 | 0.00 | 0.00 | 0.00 | 80 | 1018.3 |
| 20260831030509 | 19 | 9 | 0.0 | 4.8 | 0.00 | 0.00 | 0.00 | 79 | 1018.3 |
| 20260831030029 | 20 | 298 | 1.6 | 6.4 | 0.00 | 0.00 | 0.00 | 78 | 1018.3 |
| 20260831025513 | 20 | 338 | 3.2 | 11.3 | 0.00 | 0.00 | 0.00 | 77 | 1018.4 |
| 20260831024530 | 20 | 338 | 3.2 | 11.3 | 0.00 | 0.00 | 0.00 | 77 | 1018.4 |
| 20260831024017 | 20 | 316 | 3.2 | 14.5 | 0.00 | 0.00 | 0.00 | 76 | 1018.4 |
| 20260831023514 | 20 | 48 | 3.2 | 14.5 | 0.00 | 0.00 | 0.00 | 76 | 1018.4 |
| 20260831023037 | 20 | 9 | 3.2 | 11.3 | 0.00 | 0.00 | 0.00 | 76 | 1018.2 |
| 20260831022516 | 20 | 34 | 1.6 | 11.3 | 0.00 | 0.00 | 0.00 | 76 | 1018.2 |
| 20260831022019 | 21 | 247 | 1.6 | 9.7 | 0.00 | 0.00 | 0.00 | 75 | 1018.2 |
| 20260831021532 | 21 | 325 | 1.6 | 12.9 | 0.00 | 0.00 | 0.00 | 75 | 1018.1 |
| 20260831021009 | 21 | 342 | 3.2 | 16.1 | 0.00 | 0.00 | 0.00 | 75 | 1018.1 |
| 20260831020513 | 21 | 9 | 1.6 | 16.1 | 0.00 | 0.00 | 0.00 | 75 | 1018.1 |
| 20260831020046 | 20 | 238 | 4.8 | 11.3 | 0.00 | 0.00 | 0.00 | 76 | 1018.2 |
| 20260831015513 | 20 | 341 | 3.2 | 8.0 | 0.00 | 0.00 | 0.00 | 77 | 1018.3 |
| 20260831015014 | 20 | 316 | 3.2 | 8.0 | 0.00 | 0.00 | 0.00 | 76 | 1018.3 |
| 20260831014530 | 20 | 67 | 0.0 | 9.7 | 0.00 | 0.00 | 0.00 | 76 | 1018.3 |
| 20260831014016 | 20 | 67 | 4.8 | 9.7 | 0.00 | 0.00 | 0.00 | 76 | 1018.4 |
| 20260831013514 | 21 | 67 | 1.6 | 6.4 | 0.00 | 0.00 | 0.00 | 74 | 1018.2 |
| 20260831013035 | 21 | 205 | 1.6 | 4.8 | 0.00 | 0.00 | 0.00 | 74 | 1018.1 |
| 20260831012519 | 21 | 217 | 1.6 | 6.4 | 0.00 | 0.00 | 0.00 | 74 | 1018.2 |
| 20260831012019 | 21 | 51 | 3.2 | 11.3 | 0.00 | 0.00 | 0.00 | 73 | 1018.1 |
| 20260831011534 | 21 | 93 | 1.6 | 11.3 | 0.00 | 0.00 | 0.00 | 73 | 1018.0 |
| 20260831011018 | 21 | 200 | 8.0 | 16.1 | 0.00 | 0.00 | 0.00 | 72 | 1018.0 |
| 20260831010514 | 21 | 191 | 8.0 | 16.1 | 0.00 | 0.00 | 0.00 | 72 | 1018.0 |
| 20260831010021 | 21 | 168 | 4.8 | 12.9 | 0.00 | 0.00 | 0.00 | 70 | 1017.9 |
| 20260831005511 | 21 | 221 | 8.0 | 14.5 | 0.00 | 0.00 | 0.00 | 70 | 1017.9 |
| 20260831005012 | 21 | 247 | 4.8 | 19.3 | 0.00 | 0.00 | 0.00 | 71 | 1018.0 |
| 20260831004544 | 21 | 26 | 4.8 | 19.3 | 0.00 | 0.00 | 0.00 | 70 | 1017.9 |
| 20260831004013 | 21 | 336 | 6.4 | 19.3 | 0.00 | 0.00 | 0.00 | 71 | 1017.8 |
| 20260831003519 | 21 | 132 | 1.6 | 16.1 | 0.00 | 0.00 | 0.00 | 70 | 1017.8 |
| 20260831003029 | 22 | 304 | 6.4 | 16.1 | 0.00 | 0.00 | 0.00 | 69 | 1017.7 |
| 20260831002514 | 22 | 42 | 6.4 | 16.1 | 0.00 | 0.00 | 0.00 | 68 | 1017.6 |
| 20260831002018 | 22 | 342 | 3.2 | 22.5 | 0.00 | 0.00 | 0.00 | 68 | 1017.4 |
| 20260831001535 | 22 | 212 | 1.6 | 22.5 | 0.00 | 0.00 | 0.00 | 67 | 1017.3 |
| 20260831001016 | 22 | 9 | 4.8 | 19.3 | 0.00 | 0.00 | 0.00 | 68 | 1017.4 |
| 20260831000517 | 22 | 304 | 4.8 | 19.3 | 0.00 | 0.00 | 0.00 | 68 | 1017.3 |
| 20260831000019 | 22 | 38 | 4.8 | 11.3 | 0.00 | 0.00 | 0.00 | 69 | 1017.2 |
| 20260830235510 | 22 | 309 | 1.6 | 19.3 | 0.00 | 0.00 | 0.00 | 69 | 1017.0 |
| 20260830235008 | 23 | 229 | 3.2 | 19.3 | 0.00 | 0.00 | 0.00 | 68 | 1016.9 |
| 20260830234535 | 23 | 241 | 8.0 | 20.9 | 0.00 | 0.00 | 0.00 | 67 | 1016.8 |
| 20260830234015 | 23 | 173 | 12.9 | 20.9 | 0.00 | 0.00 | 0.00 | 67 | 1016.7 |
| 20260830233515 | 23 | 221 | 1.6 | 24.1 | 0.00 | 0.00 | 0.00 | 67 | 1016.8 |
| 20260830233029 | 23 | 221 | 8.0 | 24.1 | 0.00 | 0.00 | 0.00 | 68 | 1016.8 |
| 20260830232504 | 23 | 238 | 6.4 | 12.9 | 0.00 | 0.00 | 0.00 | 68 | 1016.8 |
| 20260830232004 | 23 | 229 | 1.6 | 16.1 | 0.00 | 0.00 | 0.00 | 68 | 1016.8 |
| 20260830231516 | 23 | 205 | 3.2 | 16.1 | 0.00 | 0.00 | 0.00 | 68 | 1016.8 |
| 20260830231017 | 23 | 232 | 4.8 | 16.1 | 0.00 | 0.00 | 0.00 | 69 | 1016.7 |
| 20260830230506 | 23 | 238 | 3.2 | 11.3 | 0.00 | 0.00 | 0.00 | 68 | 1016.7 |
| 20260830230033 | 23 | 309 | 3.2 | 14.5 | 0.00 | 0.00 | 0.00 | 68 | 1016.8 |
| 20260830225509 | 23 | 229 | 6.4 | 20.9 | 0.00 | 0.00 | 0.00 | 67 | 1016.8 |
| 20260830225008 | 23 | 259 | 9.7 | 20.9 | 0.00 | 0.00 | 0.00 | 67 | 1016.8 |
| 20260830224520 | 23 | 212 | 8.0 | 19.3 | 0.00 | 0.00 | 0.00 | 68 | 1016.8 |
| 20260830224012 | 23 | 241 | 6.4 | 16.1 | 0.00 | 0.00 | 0.00 | 69 | 1016.8 |
| 20260830223510 | 23 | 219 | 8.0 | 14.5 | 0.00 | 0.00 | 0.00 | 68 | 1016.6 |
| 20260830223028 | 23 | 232 | 6.4 | 17.7 | 0.00 | 0.00 | 0.00 | 69 | 1016.8 |
| 20260830222515 | 23 | 218 | 8.0 | 17.7 | 0.00 | 0.00 | 0.00 | 68 | 1016.8 |
| 20260830222013 | 23 | 218 | 9.7 | 16.1 | 0.00 | 0.00 | 0.00 | 68 | 1016.7 |
| 20260830221531 | 23 | 224 | 6.4 | 16.1 | 0.00 | 0.00 | 0.00 | 70 | 1016.7 |
| 20260830221017 | 23 | 183 | 9.7 | 16.1 | 0.00 | 0.00 | 0.00 | 68 | 1016.8 |
| 20260830220519 | 24 | 217 | 4.8 | 14.5 | 0.00 | 0.00 | 0.00 | 69 | 1016.8 |
| 20260830220011 | 24 | 198 | 8.0 | 11.3 | 0.00 | 0.00 | 0.00 | 68 | 1016.8 |
| 20260830215518 | 24 | 188 | 6.4 | 9.7 | 0.00 | 0.00 | 0.00 | 69 | 1016.7 |
| 20260830215007 | 24 | 221 | 6.4 | 9.7 | 0.00 | 0.00 | 0.00 | 66 | 1016.8 |
| 20260830214516 | 24 | 198 | 4.8 | 9.7 | 0.00 | 0.00 | 0.00 | 65 | 1016.7 |
| 20260830214008 | 25 | 205 | 3.2 | 12.9 | 0.00 | 0.00 | 0.00 | 64 | 1016.7 |
| 20260830213508 | 25 | 198 | 4.8 | 17.7 | 0.00 | 0.00 | 0.00 | 64 | 1016.8 |
| 20260830213037 | 25 | 214 | 9.7 | 24.1 | 0.00 | 0.00 | 0.00 | 62 | 1016.8 |
| 20260830212512 | 25 | 227 | 11.3 | 24.1 | 0.00 | 0.00 | 0.00 | 63 | 1016.8 |
| 20260830212012 | 25 | 201 | 11.3 | 19.3 | 0.00 | 0.00 | 0.00 | 62 | 1016.8 |
| 20260830211548 | 25 | 200 | 9.7 | 19.3 | 0.00 | 0.00 | 0.00 | 61 | 1016.8 |
| 20260830211016 | 25 | 242 | 8.0 | 17.7 | 0.00 | 0.00 | 0.00 | 61 | 1016.9 |
| 20260830210519 | 25 | 218 | 6.4 | 27.4 | 0.00 | 0.00 | 0.00 | 61 | 1016.8 |
| 20260830210025 | 26 | 236 | 9.7 | 27.4 | 0.00 | 0.00 | 0.00 | 60 | 1016.8 |
| 20260830205504 | 26 | 221 | 14.5 | 30.6 | 0.00 | 0.00 | 0.00 | 60 | 1016.9 |
| 20260830205007 | 26 | 219 | 17.7 | 32.2 | 0.00 | 0.00 | 0.00 | 59 | 1016.8 |
| 20260830204515 | 26 | 224 | 14.5 | 32.2 | 0.00 | 0.00 | 0.00 | 60 | 1016.9 |
| 20260830204006 | 26 | 225 | 12.9 | 32.2 | 0.00 | 0.00 | 0.00 | 60 | 1016.9 |
| 20260830203506 | 26 | 178 | 14.5 | 32.2 | 0.00 | 0.00 | 0.00 | 63 | 1016.9 |
| 20260830203030 | 25 | 188 | 11.3 | 30.6 | 0.00 | 0.00 | 0.00 | 63 | 1016.9 |
| 20260830202513 | 26 | 298 | 9.7 | 29.0 | 0.00 | 0.00 | 0.00 | 62 | 1016.8 |
| 20260830202023 | 26 | 210 | 16.1 | 30.6 | 0.00 | 0.00 | 0.00 | 60 | 1016.9 |
| 20260830201527 | 26 | 193 | 12.9 | 30.6 | 0.00 | 0.00 | 0.00 | 61 | 1016.9 |
| 20260830201015 | 26 | 214 | 9.7 | 25.7 | 0.00 | 0.00 | 0.00 | 61 | 1017.0 |
| 20260830200503 | 25 | 184 | 14.5 | 29.0 | 0.00 | 0.00 | 0.00 | 64 | 1016.9 |
| 20260830200009 | 25 | 231 | 12.9 | 29.0 | 0.00 | 0.00 | 0.00 | 61 | 1017.0 |
| 20260830195504 | 26 | 221 | 9.7 | 24.1 | 0.00 | 0.00 | 0.00 | 63 | 1017.0 |
| 20260830195017 | 25 | 232 | 14.5 | 25.7 | 0.00 | 0.00 | 0.00 | 58 | 1017.1 |
| 20260830194514 | 25 | 219 | 14.5 | 25.7 | 0.00 | 0.00 | 0.00 | 60 | 1017.1 |
| 20260830194004 | 25 | 200 | 16.1 | 25.7 | 0.00 | 0.00 | 0.00 | 59 | 1017.1 |
| 20260830193509 | 26 | 224 | 16.1 | 27.4 | 0.00 | 0.00 | 0.00 | 57 | 1017.2 |
| 20260830193020 | 26 | 208 | 14.5 | 27.4 | 0.00 | 0.00 | 0.00 | 57 | 1017.3 |
| 20260830192508 | 26 | 203 | 14.5 | 24.1 | 0.00 | 0.00 | 0.00 | 57 | 1017.3 |
| 20260830192021 | 26 | 225 | 14.5 | 24.1 | 0.00 | 0.00 | 0.00 | 57 | 1017.2 |
| 20260830191537 | 27 | 178 | 11.3 | 24.1 | 0.00 | 0.00 | 0.00 | 57 | 1017.3 |
| 20260830191014 | 26 | 214 | 9.7 | 24.1 | 0.00 | 0.00 | 0.00 | 57 | 1017.3 |
| 20260830190515 | 26 | 238 | 12.9 | 24.1 | 0.00 | 0.00 | 0.00 | 57 | 1017.3 |
| 20260830190031 | 26 | 195 | 11.3 | 19.3 | 0.00 | 0.00 | 0.00 | 58 | 1017.5 |
| 20260830185513 | 26 | 209 | 8.0 | 19.3 | 0.00 | 0.00 | 0.00 | 61 | 1017.6 |
| 20260830185017 | 26 | 215 | 14.5 | 19.3 | 0.00 | 0.00 | 0.00 | 59 | 1017.7 |
| 20260830184511 | 26 | 243 | 8.0 | 14.5 | 0.00 | 0.00 | 0.00 | 63 | 1017.7 |
| 20260830184017 | 26 | 221 | 6.4 | 14.5 | 0.00 | 0.00 | 0.00 | 62 | 1017.7 |
| 20260830183504 | 25 | 162 | 8.0 | 14.5 | 0.00 | 0.00 | 0.00 | 64 | 1017.8 |
| 20260830183014 | 25 | 219 | 6.4 | 19.3 | 0.00 | 0.00 | 0.00 | 64 | 1017.9 |
| 20260830182522 | 25 | 178 | 8.0 | 19.3 | 0.00 | 0.00 | 0.00 | 63 | 1017.9 |
| 20260830182014 | 25 | 194 | 9.7 | 16.1 | 0.00 | 0.00 | 0.00 | 63 | 1017.9 |
| 20260830181534 | 26 | 171 | 8.0 | 16.1 | 0.00 | 0.00 | 0.00 | 61 | 1018.0 |
| 20260830181016 | 25 | 221 | 6.4 | 14.5 | 0.00 | 0.00 | 0.00 | 63 | 1018.0 |
| 20260830180515 | 25 | 219 | 8.0 | 14.5 | 0.00 | 0.00 | 0.00 | 61 | 1018.1 |
| 20260830180245 | 25 | 195 | 4.8 | 12.9 | 0.00 | 0.00 | 0.00 | 65 | 1018.1 |
| 20260830180241 | 24 | 249 | 3.2 | 9.7 | 0.00 | 0.00 | 0.00 | 67 | 1018.2 |
| 20260830180236 | 25 | 215 | 1.6 | 11.3 | 0.00 | 0.00 | 0.00 | 62 | 1018.2 |
| 20260830174022 | 25 | 126 | 1.6 | 9.7 | 0.00 | 0.00 | 0.00 | 64 | 1018.4 |
| 20260830173517 | 25 | 196 | 1.6 | 12.9 | 0.00 | 0.00 | 0.00 | 64 | 1018.4 |
| 20260830173012 | 25 | 209 | 8.0 | 14.5 | 0.00 | 0.00 | 0.00 | 60 | 1018.5 |
| 20260830172508 | 25 | 225 | 6.4 | 14.5 | 0.00 | 0.00 | 0.00 | 63 | 1018.6 |
| 20260830172019 | 25 | 153 | 4.8 | 11.3 | 0.00 | 0.00 | 0.00 | 63 | 1018.5 |
| 20260830171518 | 24 | 205 | 3.2 | 12.9 | 0.00 | 0.00 | 0.00 | 65 | 1018.7 |
| 20260830171021 | 24 | 98 | 1.6 | 12.9 | 0.00 | 0.00 | 0.00 | 66 | 1018.6 |
| 20260830170512 | 24 | 165 | 1.6 | 6.4 | 0.00 | 0.00 | 0.00 | 66 | 1018.6 |
| 20260830170024 | 24 | 67 | 1.6 | 6.4 | 0.00 | 0.00 | 0.00 | 66 | 1018.8 |
| 20260830165510 | 23 | 291 | 0.0 | 9.7 | 0.00 | 0.00 | 0.00 | 65 | 1019.1 |
| 20260830165014 | 23 | 129 | 3.2 | 9.7 | 0.00 | 0.00 | 0.00 | 67 | 1019.2 |
| 20260830164534 | 23 | 132 | 3.2 | 6.4 | 0.00 | 0.00 | 0.00 | 67 | 1019.3 |
| 20260830164018 | 23 | 46 | 1.6 | 11.3 | 0.00 | 0.00 | 0.00 | 67 | 1019.4 |
| 20260830163517 | 23 | 221 | 1.6 | 14.5 | 0.00 | 0.00 | 0.00 | 66 | 1019.5 |
| 20260830163033 | 23 | 202 | 8.0 | 14.5 | 0.00 | 0.00 | 0.00 | 64 | 1019.4 |
| 20260830162517 | 23 | 178 | 4.8 | 12.9 | 0.00 | 0.00 | 0.00 | 67 | 1019.3 |
| 20260830162016 | 23 | 171 | 6.4 | 12.9 | 0.00 | 0.00 | 0.00 | 67 | 1019.5 |
| 20260830161549 | 23 | 137 | 3.2 | 9.7 | 0.00 | 0.00 | 0.00 | 69 | 1019.5 |
| 20260830161021 | 23 | 309 | 1.6 | 9.7 | 0.00 | 0.00 | 0.00 | 71 | 1019.5 |
| 20260830160510 | 23 | 93 | 1.6 | 11.3 | 0.00 | 0.00 | 0.00 | 70 | 1019.6 |
| 20260830160019 | 23 | 67 | 3.2 | 11.3 | 0.00 | 0.00 | 0.00 | 75 | 1019.7 |
| 20260830155510 | 22 | 156 | 3.2 | 9.7 | 0.00 | 0.00 | 0.00 | 73 | 1019.8 |
| 20260830155012 | 22 | 185 | 3.2 | 8.0 | 0.00 | 0.00 | 0.00 | 74 | 1019.8 |
| 20260830154535 | 22 | 221 | 3.2 | 12.9 | 0.00 | 0.00 | 0.00 | 74 | 1019.9 |
| 20260830154012 | 22 | 205 | 6.4 | 12.9 | 0.00 | 0.00 | 0.00 | 70 | 1019.9 |
| 20260830153512 | 22 | 225 | 6.4 | 16.1 | 0.00 | 0.00 | 0.00 | 72 | 1020.0 |
| 20260830153044 | 22 | 173 | 3.2 | 16.1 | 0.00 | 0.00 | 0.00 | 72 | 1020.1 |
| 20260830152516 | 22 | 205 | 6.4 | 12.9 | 0.00 | 0.00 | 0.00 | 72 | 1020.1 |
| 20260830152017 | 22 | 255 | 1.6 | 11.3 | 0.00 | 0.00 | 0.00 | 74 | 1020.1 |
| 20260830151531 | 21 | 205 | 3.2 | 12.9 | 0.00 | 0.00 | 0.00 | 75 | 1020.1 |
| 20260830151017 | 21 | 225 | 6.4 | 12.9 | 0.00 | 0.00 | 0.00 | 74 | 1020.2 |
| 20260830150521 | 21 | 218 | 4.8 | 9.7 | 0.00 | 0.00 | 0.00 | 74 | 1020.2 |
| 20260830150035 | 21 | 198 | 3.2 | 11.3 | 0.00 | 0.00 | 0.00 | 76 | 1020.3 |
| 20260830145509 | 20 | 215 | 6.4 | 11.3 | 0.00 | 0.00 | 0.00 | 76 | 1020.2 |
| 20260830145011 | 21 | 190 | 3.2 | 8.0 | 0.00 | 0.00 | 0.00 | 75 | 1020.1 |
| 20260830144534 | 21 | 205 | 4.8 | 12.9 | 0.00 | 0.00 | 0.00 | 74 | 1020.2 |
| 20260830144012 | 21 | 219 | 6.4 | 12.9 | 0.00 | 0.00 | 0.00 | 72 | 1020.3 |
| 20260830143515 | 21 | 219 | 8.0 | 12.9 | 0.00 | 0.00 | 0.00 | 72 | 1020.4 |
| 20260830143037 | 21 | 207 | 4.8 | 14.5 | 0.00 | 0.00 | 0.00 | 72 | 1020.5 |
| 20260830142515 | 21 | 225 | 6.4 | 14.5 | 0.00 | 0.00 | 0.00 | 73 | 1020.4 |
| 20260830142017 | 21 | 219 | 8.0 | 14.5 | 0.00 | 0.00 | 0.00 | 73 | 1020.4 |
| 20260830141531 | 21 | 213 | 8.0 | 14.5 | 0.00 | 0.00 | 0.00 | 73 | 1020.5 |
| 20260830141015 | 21 | 210 | 9.7 | 14.5 | 0.00 | 0.00 | 0.00 | 72 | 1020.5 |
| 20260830140516 | 20 | 203 | 9.7 | 12.9 | 0.00 | 0.00 | 0.00 | 74 | 1020.5 |
| 20260830140038 | 20 | 224 | 4.8 | 11.3 | 0.00 | 0.00 | 0.00 | 76 | 1020.6 |
| 20260830135518 | 20 | 210 | 4.8 | 11.3 | 0.00 | 0.00 | 0.00 | 76 | 1020.5 |
| 20260830135015 | 20 | 170 | 4.8 | 12.9 | 0.00 | 0.00 | 0.00 | 75 | 1020.5 |
| 20260830134537 | 20 | 133 | 3.2 | 14.5 | 0.00 | 0.00 | 0.00 | 76 | 1020.4 |
| 20260830134015 | 20 | 221 | 6.4 | 14.5 | 0.00 | 0.00 | 0.00 | 73 | 1020.5 |
| 20260830133513 | 20 | 265 | 1.6 | 16.1 | 0.00 | 0.00 | 0.00 | 75 | 1020.6 |
| 20260830133035 | 20 | 200 | 9.7 | 19.3 | 0.00 | 0.00 | 0.00 | 74 | 1020.6 |
| 20260830132513 | 20 | 196 | 12.9 | 19.3 | 0.00 | 0.00 | 0.00 | 75 | 1020.6 |
| 20260830132013 | 20 | 186 | 11.3 | 17.7 | 0.00 | 0.00 | 0.00 | 76 | 1020.6 |
| 20260830131530 | 19 | 216 | 11.3 | 19.3 | 0.00 | 0.00 | 0.00 | 76 | 1020.7 |
| 20260830131019 | 18 | 196 | 11.3 | 19.3 | 0.00 | 0.00 | 0.00 | 78 | 1020.8 |
| 20260830130515 | 18 | 167 | 6.4 | 11.3 | 0.00 | 0.00 | 0.00 | 81 | 1020.8 |
| 20260830130051 | 17 | 217 | 4.8 | 9.7 | 0.00 | 0.00 | 0.00 | 82 | 1020.9 |
| 20260830125518 | 17 | 236 | 3.2 | 9.7 | 0.00 | 0.00 | 0.00 | 83 | 1020.9 |
| 20260830125014 | 17 | 249 | 3.2 | 6.4 | 0.00 | 0.00 | 0.00 | 84 | 1021.0 |
| 20260830124534 | 16 | 265 | 1.6 | 8.0 | 0.00 | 0.00 | 0.00 | 86 | 1021.1 |
| 20260830124018 | 16 | 137 | 3.2 | 8.0 | 0.00 | 0.00 | 0.00 | 86 | 1021.1 |
| 20260830123519 | 16 | 51 | 1.6 | 4.8 | 0.00 | 0.00 | 0.00 | 86 | 1021.1 |
| 20260830123035 | 16 | 165 | 1.6 | 4.8 | 0.00 | 0.00 | 0.00 | 86 | 1021.1 |
| 20260830122519 | 16 | 265 | 0.0 | 8.0 | 0.00 | 0.00 | 0.00 | 88 | 1021.3 |
| 20260830122014 | 16 | 205 | 1.6 | 8.0 | 0.00 | 0.00 | 0.00 | 88 | 1021.4 |
| 20260830121530 | 16 | 26 | 4.8 | 8.0 | 0.00 | 0.00 | 0.00 | 88 | 1021.3 |
| 20260830121006 | 16 | 57 | 3.2 | 8.0 | 0.00 | 0.00 | 0.00 | 90 | 1021.3 |
| 20260830120505 | 15 | 26 | 3.2 | 8.0 | 0.00 | 0.00 | 0.00 | 91 | 1021.4 |
| 20260830120009 | 15 | 9 | 4.8 | 8.0 | 0.00 | 0.00 | 0.00 | 92 | 1021.4 |
| 20260830115515 | 15 | 61 | 1.6 | 6.4 | 0.00 | 0.00 | 0.00 | 93 | 1021.4 |
| 20260830115015 | 14 | 85 | 3.2 | 8.0 | 0.00 | 0.00 | 0.00 | 93 | 1021.4 |
| 20260830114525 | 14 | 78 | 4.8 | 8.0 | 0.00 | 0.00 | 0.00 | 94 | 1021.4 |
| 20260830114011 | 14 | 39 | 4.8 | 8.0 | 0.00 | 0.00 | 0.00 | 94 | 1021.5 |
| 20260830113510 | 13 | 59 | 3.2 | 6.4 | 0.00 | 0.00 | 0.00 | 94 | 1021.4 |
| 20260830113020 | 13 | 46 | 3.2 | 6.4 | 0.00 | 0.00 | 0.00 | 94 | 1021.5 |
| 20260830112514 | 13 | 51 | 3.2 | 6.4 | 0.00 | 0.00 | 0.00 | 94 | 1021.6 |
| 20260830112015 | 13 | 39 | 3.2 | 6.4 | 0.00 | 0.00 | 0.00 | 94 | 1021.7 |
| 20260830111527 | 13 | 38 | 3.2 | 4.8 | 0.00 | 0.00 | 0.00 | 94 | 1021.7 |